User: anonymous
Location: Unspecified
(0.0000°N, 0.0000°E)
Time: 13:25:54
(UTC+02:00)
Language:

Cosmos 2279 Rocket - Orbit

View from above orbital plane
View from above orbital plane
View from above satellite
View from above satellite

Ground track
Ground track

The orbit data is extracted from the following two-line orbital elements,

1 23093U 94024B   14233.86830051  .00000040  00000-0  24875-4 0  8904
2 23093 082.9505 160.7152 0010366 020.3608 339.7961 13.77624016489562
Epoch (UTC): 21 August 2014 20:50:21
Eccentricity: 0.0010366
inclination: 82.9505°
perigee height: 965 km
apogee height: 980 km
right ascension of ascending node: 160.7152°
argument of perigee: 20.3608°
revolutions per day: 13.77624016
mean anomaly at epoch: 339.7961°
orbit number at epoch: 48956

The dashed part of the orbit path shows where the satellite is in the earth's shadow,  

DLR